Location: Briis
(48.6240°N, 2.1211°E)
Time: 03:47:50
(UTC+00:00)

Okean 1 - Pass Details

Date: 25 September 2020
Orbit: 537 x 557 km, 82.5° (Epoch: 22 October)

Event Time Altitude Azimuth Distance (km) Brightness Sun altitude
Rises 04:39:24 0° 192° (SSW) 2,727 6.6 -11.2°
Reaches altitude 10° 04:41:34 10° 194° (SSW) 1,836 5.7 -10.9°
Maximum altitude 04:45:37 75° 280° (W) 581 3.3 -10.2°
Drops below altitude 10° 04:49:41 10° 7° (N) 1,845 6.2 -9.6°
Sets 04:51:52 0° 9° (N) 2,742 7.1 -9.2°
